Saint Bonnet de Bellac- Haute Vienne - France
Donnes mto: mardi, 01/05/2012
Date Horaire Temp. E. Hum. E. P.atmo. Pluie Vent Direction Direction Ensoleilleme Solaire P. de rose Temp au vent Rafales
01/05/2012 00:00 6,0 C 93 % 1012,2 hPa 0,0 mm 2,5 km/h (1 Bft) S 180 0 min 0 W/m 5,0 C 6,0 C 2,5 km/h (1 Bft)
01/05/2012 00:10 6,0 C 93 % 1012,4 hPa 0,0 mm 2,5 km/h (1 Bft) N 360 0 min 0 W/m 5,0 C 6,0 C 2,5 km/h (1 Bft)
01/05/2012 00:20 6,0 C 93 % 1012,4 hPa 0,0 mm 2,5 km/h (1 Bft) N 360 0 min 0 W/m 5,0 C 6,0 C 2,5 km/h (1 Bft)
01/05/2012 00:30 6,0 C 93 % 1012,5 hPa 0,0 mm 2,5 km/h (1 Bft) N 360 0 min 0 W/m 5,0 C 6,0 C 2,5 km/h (1 Bft)
01/05/2012 00:40 6,0 C 93 % 1012,7 hPa 0,0 mm 2,5 km/h (1 Bft) N 360 0 min 0 W/m 5,0 C 6,0 C 2,5 km/h (1 Bft)
01/05/2012 00:50 6,0 C 93 % 1012,6 hPa 0,0 mm 2,5 km/h (1 Bft) N 360 0 min 0 W/m 5,0 C 6,0 C 2,5 km/h (1 Bft)
01/05/2012 01:00 6,0 C 93 % 1012,7 hPa 0,0 mm 2,5 km/h (1 Bft) N 360 0 min 0 W/m 5,0 C 6,0 C 2,5 km/h (1 Bft)
01/05/2012 01:10 6,0 C 93 % 1012,6 hPa 0,0 mm 2,5 km/h (1 Bft) N 360 0 min 0 W/m 5,0 C 6,0 C 2,5 km/h (1 Bft)
01/05/2012 01:20 6,0 C 93 % 1012,7 hPa 0,0 mm 2,5 km/h (1 Bft) N 360 0 min 0 W/m 5,0 C 6,0 C 2,5 km/h (1 Bft)
01/05/2012 01:30 5,8 C 93 % 1012,7 hPa 0,0 mm 0,0 km/h (0 Bft) S 180 0 min 0 W/m 4,8 C 5,8 C 0,0 km/h (0 Bft)
01/05/2012 01:40 5,6 C 93 % 1012,7 hPa 0,0 mm 0,0 km/h (0 Bft) S 180 0 min 0 W/m 4,6 C 5,6 C 0,0 km/h (0 Bft)
01/05/2012 01:50 5,5 C 93 % 1012,6 hPa 0,0 mm 0,0 km/h (0 Bft) SE 135 0 min 0 W/m 4,5 C 5,5 C 0,0 km/h (0 Bft)
01/05/2012 02:00 5,4 C 93 % 1012,5 hPa 0,0 mm 0,0 km/h (0 Bft) SE 135 0 min 0 W/m 4,4 C 5,4 C 0,0 km/h (0 Bft)
01/05/2012 02:10 5,4 C 94 % 1012,5 hPa 0,0 mm 0,0 km/h (0 Bft) SE 135 0 min 0 W/m 4,5 C 5,4 C 0,0 km/h (0 Bft)
01/05/2012 02:20 5,3 C 94 % 1012,5 hPa 0,0 mm 0,0 km/h (0 Bft) SE 135 0 min 0 W/m 4,4 C 5,3 C 0,0 km/h (0 Bft)
01/05/2012 02:30 5,1 C 94 % 1012,5 hPa 0,0 mm 0,0 km/h (0 Bft) SE 135 0 min 0 W/m 4,2 C 5,1 C 0,0 km/h (0 Bft)
01/05/2012 02:40 4,8 C 93 % 1012,7 hPa 0,0 mm 0,0 km/h (0 Bft) SE 135 0 min 0 W/m 3,8 C 4,8 C 0,0 km/h (0 Bft)
01/05/2012 02:50 4,8 C 93 % 1012,8 hPa 0,0 mm 0,0 km/h (0 Bft) SE 135 0 min 0 W/m 3,8 C 4,8 C 0,0 km/h (0 Bft)
01/05/2012 03:02 5,0 C 94 % 1012,8 hPa 0,0 mm 0,0 km/h (0 Bft) SE 135 0 min 0 W/m 4,1 C 5,0 C 0,0 km/h (0 Bft)
01/05/2012 03:10 5,2 C 94 % 1012,9 hPa 0,0 mm 0,0 km/h (0 Bft) SE 135 0 min 0 W/m 4,3 C 5,2 C 0,0 km/h (0 Bft)
01/05/2012 03:20 5,3 C 94 % 1012,9 hPa 0,0 mm 0,7 km/h (0 Bft) S-SO 202 0 min 0 W/m 4,4 C 5,3 C 3,2 km/h (1 Bft)
01/05/2012 03:30 5,4 C 94 % 1013,0 hPa 0,0 mm 4,0 km/h (1 Bft) S 180 0 min 0 W/m 4,5 C 5,4 C 6,5 km/h (2 Bft)
01/05/2012 03:40 5,6 C 94 % 1013,0 hPa 0,0 mm 1,4 km/h (1 Bft) S-SO 202 0 min 0 W/m 4,7 C 5,6 C 2,9 km/h (1 Bft)
01/05/2012 03:50 5,6 C 94 % 1013,1 hPa 0,0 mm 1,4 km/h (1 Bft) S-SO 202 0 min 0 W/m 4,7 C 5,6 C 2,9 km/h (1 Bft)
01/05/2012 04:00 6,5 C 95 % 1013,1 hPa 0,0 mm 4,7 km/h (1 Bft) S-SE 157 0 min 0 W/m 5,8 C 5,9 C 7,9 km/h (2 Bft)
01/05/2012 04:10 6,5 C 95 % 1013,1 hPa 0,0 mm 4,0 km/h (1 Bft) S 180 0 min 0 W/m 5,8 C 6,5 C 4,0 km/h (1 Bft)
01/05/2012 04:20 6,5 C 95 % 1013,1 hPa 0,0 mm 4,0 km/h (1 Bft) N 360 0 min 0 W/m 5,8 C 6,5 C 4,0 km/h (1 Bft)
01/05/2012 04:30 6,5 C 95 % 1013,1 hPa 0,0 mm 4,0 km/h (1 Bft) N 360 0 min 0 W/m 5,8 C 6,5 C 4,0 km/h (1 Bft)
01/05/2012 04:40 6,6 C 94 % 1013,1 hPa 0,0 mm 0,0 km/h (0 Bft) S-SO 202 0 min 0 W/m 5,7 C 6,6 C 0,0 km/h (0 Bft)
01/05/2012 04:50 6,3 C 94 % 1013,1 hPa 0,0 mm 0,0 km/h (0 Bft) S-SO 202 0 min 0 W/m 5,4 C 6,3 C 0,0 km/h (0 Bft)
01/05/2012 05:00 5,9 C 94 % 1013,1 hPa 0,0 mm 0,0 km/h (0 Bft) S-SO 202 0 min 0 W/m 5,0 C 5,9 C 0,0 km/h (0 Bft)
01/05/2012 05:10 5,6 C 94 % 1013,0 hPa 0,0 mm 0,0 km/h (0 Bft) S-SO 202 0 min 0 W/m 4,7 C 5,6 C 0,0 km/h (0 Bft)
01/05/2012 05:20 5,2 C 94 % 1013,0 hPa 0,0 mm 0,0 km/h (0 Bft) S-SO 202 0 min 0 W/m 4,3 C 5,2 C 0,0 km/h (0 Bft)
01/05/2012 05:30 4,9 C 94 % 1013,1 hPa 0,0 mm 0,0 km/h (0 Bft) S 180 0 min 0 W/m 4,0 C 4,9 C 0,0 km/h (0 Bft)
01/05/2012 05:40 4,9 C 94 % 1013,1 hPa 0,0 mm 0,0 km/h (0 Bft) S 180 0 min 0 W/m 4,0 C 4,9 C 0,0 km/h (0 Bft)
01/05/2012 05:50 4,9 C 94 % 1013,3 hPa 0,0 mm 0,0 km/h (0 Bft) S 180 0 min 0 W/m 4,0 C 4,9 C 0,0 km/h (0 Bft)
01/05/2012 06:00 4,9 C 94 % 1013,3 hPa 0,0 mm 0,4 km/h (0 Bft) S-SE 157 0 min 0 W/m 4,0 C 4,9 C 0,4 km/h (0 Bft)
01/05/2012 06:10 5,1 C 94 % 1013,4 hPa 0,0 mm 2,9 km/h (1 Bft) E-SE 112 0 min 0 W/m 4,2 C 5,1 C 4,0 km/h (1 Bft)
01/05/2012 06:20 5,3 C 95 % 1013,5 hPa 0,1 mm 0,7 km/h (0 Bft) E 90 0 min 0 W/m 4,6 C 5,3 C 3,6 km/h (1 Bft)
01/05/2012 06:30 5,3 C 95 % 1013,6 hPa 0,0 mm 4,0 km/h (1 Bft) E-SE 112 0 min 0 W/m 4,6 C 5,3 C 6,1 km/h (2 Bft)
01/05/2012 06:40 5,3 C 95 % 1013,8 hPa 0,0 mm 2,5 km/h (1 Bft) E-SE 112 0 min 0 W/m 4,6 C 5,3 C 6,8 km/h (2 Bft)
01/05/2012 06:50 5,3 C 95 % 1013,8 hPa 0,0 mm 1,8 km/h (1 Bft) E-SE 112 0 min 0 W/m 4,6 C 5,3 C 4,0 km/h (1 Bft)
01/05/2012 07:00 5,3 C 95 % 1013,9 hPa 0,0 mm 1,1 km/h (1 Bft) E-SE 112 2 min 0 W/m 4,6 C 5,3 C 1,1 km/h (1 Bft)
01/05/2012 07:10 5,3 C 95 % 1014,0 hPa 0,0 mm 1,4 km/h (1 Bft) SE 135 2 min 0 W/m 4,6 C 5,3 C 3,6 km/h (1 Bft)
01/05/2012 07:20 5,3 C 95 % 1014,1 hPa 0,0 mm 0,0 km/h (0 Bft) E-SE 112 2 min 0 W/m 4,6 C 5,3 C 0,0 km/h (0 Bft)
01/05/2012 07:30 5,3 C 95 % 1014,3 hPa 0,0 mm 2,2 km/h (1 Bft) SE 135 2 min 0 W/m 4,6 C 5,3 C 2,2 km/h (1 Bft)
01/05/2012 07:40 5,4 C 95 % 1014,3 hPa 0,0 mm 1,8 km/h (1 Bft) E-SE 112 2 min 0 W/m 4,7 C 5,4 C 1,8 km/h (1 Bft)
01/05/2012 07:50 5,6 C 95 % 1014,4 hPa 0,0 mm 1,8 km/h (1 Bft) SE 135 2 min 0 W/m 4,9 C 5,6 C 4,3 km/h (1 Bft)
01/05/2012 08:00 5,8 C 95 % 1014,5 hPa 0,0 mm 0,4 km/h (0 Bft) SE 135 2 min 0 W/m 5,1 C 5,8 C 0,4 km/h (0 Bft)
01/05/2012 08:10 5,8 C 95 % 1014,6 hPa 0,0 mm 0,4 km/h (0 Bft) SE 135 2 min 0 W/m 5,1 C 5,8 C 0,4 km/h (0 Bft)
01/05/2012 08:20 5,8 C 95 % 1014,6 hPa 0,0 mm 0,4 km/h (0 Bft) N 360 2 min 0 W/m 5,1 C 5,8 C 0,4 km/h (0 Bft)
01/05/2012 08:30 6,8 C 95 % 1014,6 hPa 0,0 mm 2,9 km/h (1 Bft) E-SE 112 2 min 0 W/m 6,1 C 6,8 C 4,3 km/h (1 Bft)
01/05/2012 08:40 7,2 C 95 % 1014,6 hPa 0,0 mm 2,5 km/h (1 Bft) S-SE 157 2 min 0 W/m 6,5 C 7,2 C 4,3 km/h (1 Bft)
01/05/2012 08:50 7,6 C 95 % 1014,6 hPa 0,0 mm 1,8 km/h (1 Bft) SE 135 2 min 0 W/m 6,9 C 7,6 C 4,3 km/h (1 Bft)
01/05/2012 09:00 8,0 C 95 % 1014,8 hPa 0,0 mm 0,0 km/h (0 Bft) S 180 2 min 0 W/m 7,2 C 8,0 C 0,0 km/h (0 Bft)
01/05/2012 09:10 8,4 C 95 % 1014,9 hPa 0,0 mm 1,1 km/h (1 Bft) S-SO 202 2 min 0 W/m 7,6 C 8,4 C 1,1 km/h (1 Bft)
01/05/2012 09:20 9,0 C 95 % 1015,0 hPa 0,0 mm 0,0 km/h (0 Bft) SE 135 2 min 0 W/m 8,2 C 9,0 C 0,0 km/h (0 Bft)
01/05/2012 09:30 9,5 C 95 % 1015,1 hPa 0,0 mm 1,1 km/h (1 Bft) S-SE 157 2 min 0 W/m 8,7 C 9,5 C 3,6 km/h (1 Bft)
01/05/2012 09:40 9,8 C 95 % 1015,1 hPa 0,0 mm 8,6 km/h (2 Bft) E-SE 112 2 min 0 W/m 9,0 C 8,7 C 10,4 km/h (2 Bft)
01/05/2012 09:50 10,1 C 95 % 1015,2 hPa 0,0 mm 0,7 km/h (0 Bft) E 90 2 min 0 W/m 9,3 C 10,1 C 0,7 km/h (0 Bft)
01/05/2012 10:00 10,5 C 96 % 1015,3 hPa 0,0 mm 2,5 km/h (1 Bft) E-SE 112 2 min 0 W/m 9,9 C 10,5 C 4,0 km/h (1 Bft)
01/05/2012 10:10 10,8 C 96 % 1015,4 hPa 0,0 mm 2,9 km/h (1 Bft) SE 135 2 min 0 W/m 10,2 C 10,8 C 6,1 km/h (2 Bft)
01/05/2012 10:20 11,2 C 96 % 1015,6 hPa 0,0 mm 1,8 km/h (1 Bft) E-SE 112 2 min 0 W/m 10,6 C 11,2 C 3,2 km/h (1 Bft)
01/05/2012 10:30 11,6 C 95 % 1015,6 hPa 0,0 mm 2,2 km/h (1 Bft) SE 135 2 min 0 W/m 10,8 C 11,6 C 4,3 km/h (1 Bft)
01/05/2012 10:40 12,2 C 94 % 1015,6 hPa 0,0 mm 0,0 km/h (0 Bft) NE 45 2 min 0 W/m 11,3 C 12,2 C 0,0 km/h (0 Bft)
01/05/2012 10:50 12,8 C 92 % 1015,7 hPa 0,0 mm 0,0 km/h (0 Bft) E-SE 112 2 min 0 W/m 11,5 C 12,8 C 0,0 km/h (0 Bft)
01/05/2012 11:00 13,5 C 89 % 1015,6 hPa 0,0 mm 0,0 km/h (0 Bft) E-SE 112 2 min 0 W/m 11,7 C 13,5 C 0,0 km/h (0 Bft)
01/05/2012 11:10 14,2 C 85 % 1015,5 hPa 0,0 mm 6,1 km/h (2 Bft) NE 45 2 min 0 W/m 11,7 C 14,2 C 6,1 km/h (2 Bft)
01/05/2012 11:20 14,5 C 83 % 1015,6 hPa 0,0 mm 4,7 km/h (1 Bft) E-SE 112 2 min 0 W/m 11,6 C 14,5 C 8,3 km/h (2 Bft)
01/05/2012 11:30 14,8 C 77 % 1015,6 hPa 0,0 mm 5,0 km/h (1 Bft) S-SE 157 2 min 0 W/m 10,8 C 14,8 C 7,2 km/h (2 Bft)
01/05/2012 11:40 15,3 C 76 % 1015,7 hPa 0,0 mm 2,5 km/h (1 Bft) E-NE 67 2 min 0 W/m 11,1 C 15,3 C 6,1 km/h (2 Bft)
01/05/2012 11:50 15,7 C 71 % 1015,6 hPa 0,0 mm 7,9 km/h (2 Bft) E-SE 112 2 min 0 W/m 10,5 C 15,7 C 9,0 km/h (2 Bft)
01/05/2012 12:00 15,8 C 71 % 1015,7 hPa 0,0 mm 2,5 km/h (1 Bft) NE 45 2 min 0 W/m 10,6 C 15,8 C 4,3 km/h (1 Bft)
01/05/2012 12:10 15,8 C 68 % 1015,7 hPa 0,0 mm 0,0 km/h (0 Bft) NE 45 2 min 0 W/m 9,9 C 15,8 C 0,0 km/h (0 Bft)
01/05/2012 12:20 16,0 C 68 % 1015,7 hPa 0,0 mm 4,7 km/h (1 Bft) SE 135 2 min 0 W/m 10,1 C 16,0 C 7,2 km/h (2 Bft)
01/05/2012 12:30 16,4 C 67 % 1015,8 hPa 0,0 mm 4,7 km/h (1 Bft) NE 45 2 min 0 W/m 10,3 C 16,4 C 8,6 km/h (2 Bft)
01/05/2012 12:40 16,4 C 66 % 1015,6 hPa 0,0 mm 3,6 km/h (1 Bft) N-NE 22 2 min 0 W/m 10,0 C 16,4 C 3,6 km/h (1 Bft)
01/05/2012 12:50 16,6 C 65 % 1015,7 hPa 0,0 mm 6,8 km/h (2 Bft) NE 45 2 min 0 W/m 10,0 C 16,6 C 8,6 km/h (2 Bft)
01/05/2012 13:00 16,8 C 65 % 1015,7 hPa 0,0 mm 3,2 km/h (1 Bft) N-NE 22 2 min 0 W/m 10,2 C 16,8 C 6,1 km/h (2 Bft)
01/05/2012 13:10 17,1 C 64 % 1015,7 hPa 0,0 mm 2,9 km/h (1 Bft) E-SE 112 2 min 0 W/m 10,2 C 17,1 C 2,9 km/h (1 Bft)
01/05/2012 13:20 17,4 C 64 % 1015,7 hPa 0,0 mm 2,5 km/h (1 Bft) NE 45 2 min 0 W/m 10,5 C 17,4 C 4,0 km/h (1 Bft)
01/05/2012 13:30 17,8 C 62 % 1015,5 hPa 0,0 mm 6,8 km/h (2 Bft) NE 45 2 min 0 W/m 10,4 C 17,8 C 9,4 km/h (2 Bft)
01/05/2012 13:40 18,1 C 61 % 1015,4 hPa 0,0 mm 4,0 km/h (1 Bft) S-SE 157 2 min 0 W/m 10,5 C 18,1 C 6,8 km/h (2 Bft)
01/05/2012 13:50 18,5 C 58 % 1015,3 hPa 0,0 mm 5,0 km/h (1 Bft) NE 45 2 min 0 W/m 10,1 C 18,5 C 7,9 km/h (2 Bft)
01/05/2012 14:00 18,6 C 56 % 1015,3 hPa 0,0 mm 6,1 km/h (2 Bft) NE 45 2 min 0 W/m 9,6 C 18,6 C 10,4 km/h (2 Bft)
01/05/2012 14:10 18,6 C 57 % 1015,2 hPa 0,0 mm 3,6 km/h (1 Bft) NE 45 2 min 0 W/m 9,9 C 18,6 C 6,8 km/h (2 Bft)
01/05/2012 14:20 18,8 C 53 % 1015,2 hPa 0,0 mm 2,5 km/h (1 Bft) S-SE 157 2 min 0 W/m 9,0 C 18,8 C 2,5 km/h (1 Bft)
01/05/2012 14:30 19,1 C 51 % 1015,2 hPa 0,0 mm 5,4 km/h (2 Bft) S-SE 157 2 min 0 W/m 8,7 C 19,1 C 5,4 km/h (2 Bft)
01/05/2012 14:40 19,1 C 52 % 1015,1 hPa 0,0 mm 6,1 km/h (2 Bft) NE 45 2 min 0 W/m 9,0 C 19,1 C 7,6 km/h (2 Bft)
01/05/2012 14:50 18,9 C 52 % 1015,0 hPa 0,0 mm 0,0 km/h (0 Bft) E-SE 112 2 min 0 W/m 8,8 C 18,9 C 0,0 km/h (0 Bft)
01/05/2012 15:00 18,9 C 50 % 1014,8 hPa 0,0 mm 1,4 km/h (1 Bft) S-SE 157 2 min 0 W/m 8,2 C 18,9 C 6,1 km/h (2 Bft)
01/05/2012 15:10 19,2 C 49 % 1014,9 hPa 0,0 mm 3,6 km/h (1 Bft) E 90 2 min 0 W/m 8,2 C 19,2 C 6,5 km/h (2 Bft)
01/05/2012 15:20 19,4 C 45 % 1014,8 hPa 0,0 mm 2,9 km/h (1 Bft) N-NE 22 2 min 0 W/m 7,2 C 19,4 C 2,9 km/h (1 Bft)
01/05/2012 15:30 19,4 C 50 % 1014,8 hPa 0,0 mm 4,7 km/h (1 Bft) SE 135 2 min 0 W/m 8,7 C 19,4 C 7,2 km/h (2 Bft)
01/05/2012 15:40 19,6 C 49 % 1014,7 hPa 0,0 mm 4,0 km/h (1 Bft) N 360 0 min 0 W/m 8,6 C 19,6 C 4,3 km/h (1 Bft)
01/05/2012 15:50 19,6 C 50 % 1014,7 hPa 0,0 mm 2,2 km/h (1 Bft) N 360 0 min 0 W/m 8,9 C 19,6 C 9,0 km/h (2 Bft)
01/05/2012 16:00 19,9 C 49 % 1014,5 hPa 0,0 mm 6,5 km/h (2 Bft) N-NE 22 0 min 0 W/m 8,9 C 19,9 C 9,0 km/h (2 Bft)
01/05/2012 16:10 20,0 C 48 % 1014,4 hPa 0,0 mm 5,8 km/h (2 Bft) NE 45 0 min 0 W/m 8,7 C 20,0 C 10,1 km/h (2 Bft)
01/05/2012 16:20 19,9 C 47 % 1014,5 hPa 0,0 mm 1,4 km/h (1 Bft) N-NE 22 0 min 0 W/m 8,3 C 19,9 C 3,6 km/h (1 Bft)
01/05/2012 16:30 20,0 C 45 % 1014,4 hPa 0,0 mm 4,3 km/h (1 Bft) NE 45 0 min 0 W/m 7,7 C 20,0 C 7,2 km/h (2 Bft)
01/05/2012 16:40 20,0 C 44 % 1014,4 hPa 0,0 mm 1,4 km/h (1 Bft) SE 135 0 min 0 W/m 7,4 C 20,0 C 4,3 km/h (1 Bft)
01/05/2012 16:50 20,1 C 42 % 1014,3 hPa 0,0 mm 2,9 km/h (1 Bft) S 180 0 min 0 W/m 6,8 C 20,1 C 6,5 km/h (2 Bft)
01/05/2012 17:00 20,3 C 46 % 1014,3 hPa 0,0 mm 2,5 km/h (1 Bft) NE 45 0 min 0 W/m 8,3 C 20,3 C 6,1 km/h (2 Bft)
01/05/2012 17:10 20,4 C 42 % 1014,4 hPa 0,0 mm 2,9 km/h (1 Bft) SE 135 0 min 0 W/m 7,1 C 20,4 C 4,0 km/h (1 Bft)
01/05/2012 17:20 20,3 C 44 % 1014,2 hPa 0,0 mm 2,5 km/h (1 Bft) N-NE 22 0 min 0 W/m 7,6 C 20,3 C 4,3 km/h (1 Bft)
01/05/2012 17:30 20,3 C 45 % 1014,2 hPa 0,0 mm 0,0 km/h (0 Bft) N-NE 22 0 min 0 W/m 8,0 C 20,3 C 0,0 km/h (0 Bft)
01/05/2012 17:40 20,2 C 46 % 1014,2 hPa 0,0 mm 1,1 km/h (1 Bft) N-NE 22 0 min 0 W/m 8,2 C 20,2 C 4,0 km/h (1 Bft)
01/05/2012 17:50 19,8 C 46 % 1014,2 hPa 0,0 mm 5,4 km/h (2 Bft) NE 45 0 min 0 W/m 7,8 C 19,8 C 6,1 km/h (2 Bft)
01/05/2012 18:00 19,5 C 47 % 1014,3 hPa 0,0 mm 4,7 km/h (1 Bft) N-NE 22 0 min 0 W/m 7,9 C 19,5 C 6,8 km/h (2 Bft)
01/05/2012 18:10 19,4 C 46 % 1014,3 hPa 0,0 mm 3,6 km/h (1 Bft) N-NE 22 0 min 0 W/m 7,5 C 19,4 C 4,7 km/h (1 Bft)
01/05/2012 18:20 19,4 C 47 % 1014,1 hPa 0,0 mm 5,0 km/h (1 Bft) NE 45 0 min 0 W/m 7,8 C 19,4 C 9,7 km/h (2 Bft)
01/05/2012 18:30 19,4 C 46 % 1014,1 hPa 0,0 mm 5,8 km/h (2 Bft) N-NO 337 0 min 0 W/m 7,5 C 19,4 C 8,3 km/h (2 Bft)
01/05/2012 18:40 19,4 C 46 % 1014,1 hPa 0,0 mm 2,5 km/h (1 Bft) E 90 0 min 0 W/m 7,5 C 19,4 C 7,6 km/h (2 Bft)
01/05/2012 18:50 19,4 C 46 % 1014,2 hPa 0,0 mm 4,7 km/h (1 Bft) NE 45 0 min 0 W/m 7,5 C 19,4 C 6,1 km/h (2 Bft)
01/05/2012 19:00 19,4 C 48 % 1014,3 hPa 0,0 mm 4,3 km/h (1 Bft) NE 45 0 min 0 W/m 8,1 C 19,4 C 7,2 km/h (2 Bft)
01/05/2012 19:10 19,1 C 50 % 1014,4 hPa 0,0 mm 4,7 km/h (1 Bft) N-NE 22 0 min 0 W/m 8,4 C 19,1 C 4,7 km/h (1 Bft)
01/05/2012 19:20 18,8 C 50 % 1014,4 hPa 0,0 mm 6,1 km/h (2 Bft) NE 45 2 min 0 W/m 8,2 C 18,8 C 10,1 km/h (2 Bft)
01/05/2012 19:30 18,4 C 52 % 1014,5 hPa 0,0 mm 2,9 km/h (1 Bft) NE 45 2 min 0 W/m 8,4 C 18,4 C 4,3 km/h (1 Bft)
01/05/2012 19:40 18,2 C 52 % 1014,5 hPa 0,0 mm 8,3 km/h (2 Bft) SE 135 2 min 0 W/m 8,2 C 18,2 C 13,3 km/h (3 Bft)
01/05/2012 19:50 17,9 C 53 % 1014,6 hPa 0,0 mm 4,3 km/h (1 Bft) NE 45 2 min 0 W/m 8,2 C 17,9 C 7,6 km/h (2 Bft)
01/05/2012 20:00 17,4 C 55 % 1014,8 hPa 0,0 mm 7,9 km/h (2 Bft) NE 45 2 min 0 W/m 8,3 C 17,4 C 8,3 km/h (2 Bft)
01/05/2012 20:10 16,9 C 57 % 1014,8 hPa 0,0 mm 3,2 km/h (1 Bft) NO 315 2 min 0 W/m 8,3 C 16,9 C 7,6 km/h (2 Bft)
01/05/2012 20:20 16,3 C 58 % 1014,9 hPa 0,0 mm 1,1 km/h (1 Bft) E-NE 67 2 min 0 W/m 8,0 C 16,3 C 3,2 km/h (1 Bft)
01/05/2012 20:30 15,8 C 60 % 1014,9 hPa 0,0 mm 3,2 km/h (1 Bft) NE 45 2 min 0 W/m 8,1 C 15,8 C 4,3 km/h (1 Bft)
01/05/2012 20:40 15,3 C 61 % 1014,9 hPa 0,0 mm 0,7 km/h (0 Bft) E-NE 67 2 min 0 W/m 7,8 C 15,3 C 1,4 km/h (1 Bft)
01/05/2012 20:50 14,8 C 62 % 1015,0 hPa 0,0 mm 1,1 km/h (1 Bft) E-NE 67 2 min 0 W/m 7,6 C 14,8 C 4,3 km/h (1 Bft)
01/05/2012 21:00 14,4 C 64 % 1015,2 hPa 0,0 mm 1,8 km/h (1 Bft) E-NE 67 0 min 0 W/m 7,7 C 14,4 C 4,0 km/h (1 Bft)
01/05/2012 21:10 14,0 C 64 % 1015,2 hPa 0,0 mm 0,0 km/h (0 Bft) E 90 0 min 0 W/m 7,3 C 14,0 C 0,0 km/h (0 Bft)
01/05/2012 21:20 13,6 C 66 % 1015,4 hPa 0,0 mm 1,1 km/h (1 Bft) E-NE 67 0 min 0 W/m 7,4 C 13,6 C 4,0 km/h (1 Bft)
01/05/2012 21:30 13,2 C 66 % 1015,5 hPa 0,0 mm 0,0 km/h (0 Bft) E 90 0 min 0 W/m 7,0 C 13,2 C 0,0 km/h (0 Bft)
01/05/2012 21:40 12,8 C 68 % 1015,5 hPa 0,0 mm 0,7 km/h (0 Bft) E-NE 67 0 min 0 W/m 7,0 C 12,8 C 3,6 km/h (1 Bft)
01/05/2012 21:50 12,6 C 70 % 1015,6 hPa 0,0 mm 2,2 km/h (1 Bft) E-SE 112 0 min 0 W/m 7,3 C 12,6 C 3,2 km/h (1 Bft)
01/05/2012 22:00 12,3 C 71 % 1015,8 hPa 0,0 mm 0,4 km/h (0 Bft) E-SE 112 0 min 0 W/m 7,2 C 12,3 C 3,6 km/h (1 Bft)
01/05/2012 22:10 12,2 C 72 % 1015,7 hPa 0,0 mm 1,4 km/h (1 Bft) E 90 0 min 0 W/m 7,3 C 12,2 C 1,4 km/h (1 Bft)
01/05/2012 22:20 12,0 C 72 % 1015,9 hPa 0,0 mm 0,7 km/h (0 Bft) E 90 0 min 0 W/m 7,1 C 12,0 C 4,0 km/h (1 Bft)
01/05/2012 22:30 11,8 C 73 % 1015,9 hPa 0,0 mm 0,0 km/h (0 Bft) E-SE 112 0 min 0 W/m 7,1 C 11,8 C 0,0 km/h (0 Bft)
_ Min-Heure 02:50 17:10 00:00 - 22:30 - - - - 02:50 02:50 22:30
Minimum _ 4,8 C 42 % 1012,2 hPa - 0,0 km/h (0 Bft) - - - - 3,8 C 4,8 C 0,0 km/h (0 Bft)
_ Max-Heure 17:10 10:20 22:30 06:20 09:40 - - 20:50 22:30 11:00 17:10 19:40
Maximum _ 20,4 C 96 % 1015,9 hPa 0,1 mm 8,6 km/h
E-SE (2 Bft)
- - 2 min 0 W/m 11,7 C 20,4 C 13,3 km/h
SE (3 Bft)
Moyenne _ 12,1 C 75 % 1014,3 hPa #0,1 mm 2,4 km/h (1 Bft) NE - #2:04 h 0 W/m 7,2 C 12,1 C 3,9 km/h (1 Bft)
Saint Bonnet de Bellac- Haute Vienne - France